Location: Invercargill
(46.4000°S, 168.3500°E)
Time: 05:48:27
(UTC+12:00)

Daily predictions for brighter satellites

Satellite Brightness Start Highest point End
(mag) Time Altitude Azimuth Time Altitude Azimuth Time Altitude Azimuth
SL-16 R/B 4.5 03:51:27 10° SSE 03:53:21 21° S 03:53:21 21° S
Cosmos 2369 Rocket 3.9 04:06:05 30° ESE 04:06:05 30° ESE 04:10:03 10° ENE
SL-16 R/B 3.8 04:15:47 30° SE 04:15:47 30° SE 04:18:34 10° SSE
Cosmos 1943 Rocket 4.1 04:17:46 21° NE 04:17:46 21° NE 04:19:39 10° NE
ATLAS 5 CENTAUR R/B 4.5 04:17:59 16° S 04:18:14 16° S 04:21:40 10° SE
H-2A R/B 4.1 04:36:01 10° SE 04:39:44 25° E 04:40:19 25° ENE
Cosmos 2237 Rocket 4.1 04:45:55 19° S 04:45:55 19° S 04:47:50 10° S
Okean O Rocket 4.3 04:42:52 10° ENE 04:45:53 18° ESE 04:48:56 10° SSE
Nadezhda 1 Rocket 4.1 04:45:12 10° S 04:51:36 77° E 04:58:01 10° NNE
Gbstr 26 Del rocket 4.2 04:53:41 75° WSW 04:54:25 89° NNW 05:02:32 10° ENE
Cosmos 1607 3.9 05:03:26 65° N 05:04:21 79° ENE 05:10:38 10° SE
USA 234 3.2 04:57:54 10° SE 05:04:29 71° SSW 05:05:11 66° WSW
Lacrosse 5 3.2 05:11:00 30° S 05:11:00 30° S 05:14:57 10° SE
Cosmos 1943 3.9 05:08:58 22° N 05:12:26 52° ENE 05:18:00 10° SE
Cosmos 304 Rocket 3.9 05:15:51 63° SSE 05:16:31 74° ESE 05:21:21 10° NNE
Cosmos 2221 4.0 05:12:42 10° S 05:16:53 37° ESE 05:21:01 10° NE
Cosmos 1452 Rocket 3.5 05:16:25 54° SSW 05:17:40 86° ESE 05:22:59 10° NNE
CZ-4B R/B 4.2 05:18:42 10° SE 05:21:26 20° E 05:24:07 10° NE
USA 276 4.2 05:22:50 28° ENE 05:22:50 28° ENE 05:24:51 10° ESE
CZ-3 R/B 4.2 05:11:15 21° NW 05:22:37 32° N 05:30:23 10° NE
X-37B 3.5 05:24:29 13° NNE 05:24:31 13° NE 05:26:06 10° ENE
SL-8 R/B 3.6 05:29:07 73° SW 05:29:28 78° SSE 05:34:18 10° E
Helios 1B 4.5 05:27:20 10° SSE 05:31:35 76° SW 05:31:35 76° SW
Cosmos 1656 Rocket 3.8 05:29:26 16° SSW 05:34:00 74° ESE 05:39:33 10° NNE
MOS 1-B 4.2 05:30:07 10° NNE 05:35:56 85° WNW 05:41:50 10° SSW
SL-16 R/B 4.4 05:36:43 10° SSW 05:38:27 14° SSW 05:38:27 14° SSW
Cosmos 2058 4.3 05:37:49 10° NNE 05:41:49 41° E 05:45:51 10° SSE
CZ-4B DEB 4.1 05:37:37 10° N 05:43:13 74° WNW 05:48:53 10° SSW
USA 198 4.4 05:43:05 35° WSW 05:45:38 54° NW 06:06:43 10° NNE
ARGOS Delta rocket 4.3 05:43:35 10° NNE 05:47:55 56° ESE 05:52:24 10° S
Cosmos 2369 Rocket 2.4 05:47:58 40° WSW 05:49:12 47° WNW 05:54:35 10° N
CZ-4B R/B 3.3 05:46:24 10° NNE 05:52:06 83° ESE 05:57:49 10° SSW
CZ-4 R/B 4.5 05:51:02 10° E 05:52:59 13° ESE 05:54:57 10° SSE
ASTEX 1 3.6 05:48:26 10° NNW 05:53:16 49° W 05:58:14 10° SSW
Cosmos 1408 4.0 05:53:25 10° NNE 05:56:52 40° E 06:00:21 10° SSE
Meteor 1-27 4.3 05:51:25 10° SSW 05:56:54 52° W 06:02:22 10° N
SL-16 R/B 3.4 05:57:40 23° SW 05:57:40 23° SW 06:02:05 10° S
Cosmos 1943 Rocket 3.4 05:59:23 23° NW 05:59:23 23° NW 06:02:18 10° NNW
Cosmos 1842 Rocket 3.4 05:54:04 10° SSW 05:58:34 72° W 06:02:57 10° N
SJ-7 4.5 05:54:57 10° N 05:59:11 60° W 06:03:29 10° SSW
H-2A R/B 4.5 05:55:33 10° NNW 05:56:26 15° NNW 05:56:26 15° NNW
Cosmos 1892 2.8 05:55:45 10° N 05:59:33 73° E 06:03:24 10° SSE
Cosmos 2181 Rocket 4.0 05:53:20 10° S 05:59:55 86° W 06:06:22 10° N
PAYLOAD B 4.2 05:54:39 10° N 06:00:13 64° WNW 06:05:53 10° SSW
H-2A R/B 2.6 05:58:14 10° N 06:01:59 59° W 06:04:23 21° SSW
Cosmos 1048 Rocket 4.0 05:57:54 10° NNW 06:03:11 71° WSW 06:08:39 10° SSE
ERS-2 2.2 06:00:09 10° S 06:03:49 53° WSW 06:04:40 42° WNW
ATLAS 5 CENTAUR R/B 3.5 05:59:43 10° SSW 06:04:53 32° SSE 06:09:20 10° E
Cosmos 2263 4.4 06:01:49 22° SW 06:05:14 48° WNW 06:10:36 10° N
SMAP 3.1 06:02:53 10° NNE 06:07:35 83° ESE 06:12:21 10° SSW
Meteor 2-2 Rocket 4.3 06:02:41 10° SSW 06:08:48 75° W 06:14:44 10° N
ERBS 2.2 06:10:50 37° NW 06:12:04 89° NE 06:15:32 10° SE
CORIOLIS 4.3 06:07:41 10° NNE 06:13:04 79° ESE 06:18:31 10° SSW
Cosmos 1110 Rocket 3.9 06:08:32 10° SSW 06:13:46 75° WNW 06:18:59 10° NNE
SAR-Lupe-4 3.6 06:11:47 10° SSE 06:15:27 83° ENE 06:19:04 10° NNW
H-2A R/B 2.7 06:11:42 10° S 06:15:46 35° WSW 06:17:26 26° WNW
YAOGAN 6 2.4 06:12:29 10° NNE 06:16:02 85° WNW 06:19:42 10° SSW
Cosmos 1869 3.5 06:12:45 10° SSW 06:16:32 44° W 06:20:19 10° NNW
ADEOS Rocket 3.6 06:11:25 10° SSE 06:17:45 69° ENE 06:24:44 10° N
Okean O Rocket 1.7 06:17:25 10° N 06:21:49 57° W 06:26:15 10° SSW
Envisat 3.0 06:17:17 10° N 06:22:21 64° WNW 06:27:30 10° SSW
Cosmos 1269 Rocket 4.4 06:18:55 10° N 06:24:13 70° ENE 06:29:35 10° SSE
Landsat 5 4.4 06:24:19 10° S 06:27:32 24° WSW 06:27:55 24° WSW
Cosmos 1302 Rocket 4.3 06:23:18 10° SSW 06:28:40 72° ESE 06:33:57 10° NNE
Cosmos 2184 Rocket 4.1 06:24:08 10° N 06:30:20 84° E 06:36:38 10° S
SAR-Lupe-1 4.0 06:26:43 10° S 06:30:24 70° WSW 06:34:01 10° NNW
USA 81 4.0 06:25:16 10° N 06:30:36 83° W 06:36:00 10° S
Cosmos 2074 Rocket 4.1 06:25:10 10° N 06:31:30 89° E 06:37:54 10° S
Cosmos 1825 2.3 06:31:27 10° N 06:35:15 79° E 06:39:09 10° SSE
Shenzhou-11 Module 2.7 06:34:46 23° NW 06:35:34 29° N 06:37:42 10° NE
Cosmos 2151 3.7 06:32:09 10° N 06:36:25 60° E 06:40:46 10° SSE
Helios 1A Rocket 3.3 06:32:44 10° NNE 06:36:54 69° ESE 06:41:08 10° S
Cosmos 1603 4.4 06:33:34 14° WNW 06:37:47 34° SW 06:42:55 10° SSE
Nadezhda 3 Rocket 4.4 06:35:08 10° S 06:41:35 72° E 06:47:59 10° NNE
Radarsat Rocket 4.4 06:37:58 10° NNW 06:43:26 37° W 06:48:54 10° SSW
AQUARIUS 4.5 06:41:39 10° N 06:46:01 46° W 06:50:27 10° SSW
IRS-1C Rocket 4.1 06:41:25 10° NNE 06:46:44 90° ESE 06:52:07 10° SSW
USA 234 4.0 06:40:55 10° SE 06:46:56 39° SSW 06:52:32 12° WSW
FengYun 1-2 T 4.3 06:43:26 10° N 06:49:08 77° WNW 06:54:54 10° SSW
Cosmos 1076 Rocket 3.9 06:47:19 10° NNW 06:51:32 43° WSW 06:55:46 10° S
Cosmos 494 Rocket 4.4 06:47:47 10° NW 06:52:49 43° WSW 06:57:56 10° S
CZ-4B R/B 2.4 06:50:37 10° S 06:53:44 28° WSW 06:56:47 10° NW
YAOGAN 1 3.9 06:49:49 10° NE 06:53:58 43° ESE 06:58:09 10° S
Cosmos 2221 3.7 06:50:43 10° SW 06:54:13 23° W 06:57:41 10° NW
Lacrosse 5 3.4 06:50:19 10° SW 06:54:37 26° S 06:58:55 10° ESE
Cosmos 1943 4.0 06:51:46 10° WNW 06:56:46 30° SW 07:01:49 10° S
USA 276 2.4 06:55:13 13° W 06:58:02 57° SSW 07:01:19 10° ESE
PSLV R/B 4.0 06:53:56 10° SSE 06:58:16 88° W 07:02:31 10° NNW
CZ-2D R/B 4.0 06:54:58 10° NNE 06:58:51 59° ESE 07:02:44 10° S
X-37B 1.7 06:57:29 10° NW 07:00:37 42° NNE 07:03:45 10° E
BREEZE-M DEB (TANK) 3.0 06:53:31 10° W 07:02:23 61° S 07:05:20 10° ESE
Cosmos 1689 Rocket 2.6 07:03:10 10° S 07:06:03 37° WSW 07:08:51 10° NW
COSMO-SKYMED 1 2.6 07:04:51 10° SSE 07:09:18 83° WSW 07:13:41 10° NNW
SL-8 R/B 4.3 07:07:16 10° WSW 07:11:54 46° NNW 07:16:29 10° NE
SL-4 R/B 3.1 07:11:23 10° NW 07:15:17 48° NE 07:19:32 10° ESE
Cosmos 2154 Rocket 4.0 07:11:38 10° NNW 07:17:52 67° W 07:24:10 10° S
Cosmos 2058 4.3 07:15:47 10° WNW 07:18:55 20° WSW 07:22:04 10° SSW
